Location: Pasarilla del Rebollar
(40.6790°N, 5.0062°W)
Time: 11:32:32
(UTC+00:00)

Meteor 2-10 Rocket - Pass Details

Date: 22 April 2026
Orbit: 732 x 882 km, 81.2° (Epoch: 15 May)

Event Time Altitude Azimuth Distance (km) Brightness Sun altitude
Rises 04:20:06 0° 346° (NNW) 3,203 6.9 -13.2°
Reaches altitude 10° 04:22:27 10° 342° (NNW) 2,290 6.1 -12.8°
Maximum altitude 04:27:29 58° 264° (W) 900 3.6 -12.0°
Drops below altitude 10° 04:32:41 10° 187° (S) 2,363 5.7 -11.1°
Sets 04:35:08 0° 183° (S) 3,313 6.5 -10.7°
